Defiance, OH

12:20 AM EDT on June 26, 2017 (GMT -0400)
Defiance Memorial

Weather History for KDFI - November, 2010

Change the Weather History Date:

Tuesday, November 16, 2010

  Actual Average Record
Temperature  
Mean Temperature 37 °F -  
Max Temperature 48 °F 46 °F 69 °F (1964)
Min Temperature 26 °F 29 °F 15 °F (1967)
Degree Days  
Heating Degree Days 28    
Moisture  
Dew Point 35 °F    
Average Humidity 84    
Maximum Humidity 93    
Minimum Humidity 68    
Precipitation  
Precipitation 0.74 in - - ()
Sea Level Pressure  
Sea Level Pressure 29.64 in    
Wind  
Wind Speed 6 mph (North)    
Max Wind Speed 18 mph    
Max Gust Speed 26 mph    
Visibility 6 miles    
Events Rain    
Averages and records for this station are not official NWS values.
T = Trace of Precipitation, MM = Missing Value Source: NWS Daily Summary

Daily Weather History Graph

Daily Weather History Graph

Search for Another Location

Airport or City:

Trip Planner

Search our weather history database for the weather conditions in past years. The results will help you decide how hot, cold, wet, or windy it might be!

Date:

Astronomy

Nov. 16, 2010 Rise Set
Actual Time 7:27 AM EST 5:17 PM EST
Civil Twilight 6:57 AM EST 5:47 PM EST
Nautical Twilight 6:23 AM EST 6:20 PM EST
Astronomical Twilight 5:51 AM EST 6:53 PM EST
Moon 2:26 PM EST (11/16) 2:25 AM EST (11/16)
Length of Visible Light 10h 49m
Length of Day
9h 50m
Waxing Gibbous, 77% of the Moon is Illuminated
Nov 16
Waxing Gibbous
Nov 21
Full
Nov 28
Last Quarter
Dec 5
New
Dec 13
First Quarter

Hourly Weather History & Observations

Time (EST) Temp. Windchill Dew Point Humidity Pressure Visibility Wind Dir Wind Speed Gust Speed Precip Events Conditions
12:53 AM 30.0 °F - 26.1 °F 85% 29.94 in 8.0 mi Calm Calm - N/A   Clear
1:53 AM 28.0 °F - 25.0 °F 88% 29.93 in 6.0 mi Calm Calm - N/A   Clear
2:53 AM 28.9 °F - 26.1 °F 89% 29.93 in 7.0 mi Calm Calm - N/A   Clear
3:53 AM 28.0 °F - 25.0 °F 88% 29.91 in 6.0 mi Calm Calm - N/A   Clear
4:53 AM 27.0 °F - 24.1 °F 89% 29.89 in 6.0 mi Calm Calm - N/A   Clear
5:53 AM 27.0 °F - 23.0 °F 85% 29.90 in 6.0 mi Calm Calm - N/A   Clear
6:53 AM 27.0 °F - 23.0 °F 85% 29.88 in 5.0 mi Calm Calm - N/A   Clear
7:53 AM 26.1 °F 20.5 °F 21.9 °F 84% 29.86 in 5.0 mi NNE 4.6 mph - N/A   Clear
8:53 AM 33.1 °F 30.0 °F 28.0 °F 82% 29.85 in 7.0 mi NE 3.5 mph - N/A   Clear
9:53 AM 39.0 °F 34.0 °F 30.9 °F 73% 29.81 in 8.0 mi NE 6.9 mph - N/A   Clear
10:53 AM 42.1 °F 37.1 °F 34.0 °F 73% 29.78 in 8.0 mi ENE 8.1 mph - N/A   Clear
11:53 AM 45.0 °F 40.1 °F 35.1 °F 68% 29.74 in 9.0 mi NE 9.2 mph - N/A   Clear
12:53 PM 46.0 °F 41.9 °F 37.9 °F 73% 29.68 in 8.0 mi NE 8.1 mph - N/A   Clear
1:53 PM 48.0 °F - 39.9 °F 74% 29.61 in 8.0 mi NE 8.1 mph - N/A   Clear
2:53 PM 48.0 °F - 39.9 °F 74% 29.57 in 10.0 mi NE 11.5 mph 21.9 mph N/A   Clear
3:53 PM 46.9 °F - 39.9 °F 77% 29.55 in 6.0 mi NNE 11.5 mph - 0.00 in Rain Light Rain
4:53 PM 46.0 °F 41.4 °F 42.1 °F 86% 29.54 in 4.0 mi NNE 9.2 mph - 0.04 in Rain Light Rain
5:53 PM 45.0 °F 38.5 °F 42.1 °F 90% 29.51 in 4.0 mi North 13.8 mph 21.9 mph 0.09 in Rain Rain
6:28 PM 44.6 °F 37.4 °F 42.8 °F 93% 29.45 in 3.0 mi North 16.1 mph 25.3 mph 0.08 in Rain Rain
6:53 PM 45.0 °F 37.6 °F 42.1 °F 90% 29.46 in 4.0 mi North 17.3 mph - 0.13 in Rain Light Rain
7:53 PM 45.0 °F 37.4 °F 42.1 °F 90% 29.46 in 4.0 mi North 18.4 mph 26.5 mph 0.11 in Rain Rain
8:07 PM 44.6 °F 37.4 °F 42.8 °F 93% 29.44 in 4.0 mi North 16.1 mph 24.2 mph 0.04 in Rain Rain
8:53 PM 44.1 °F 36.5 °F 41.0 °F 89% 29.44 in 4.0 mi NNW 17.3 mph - 0.13 in Rain Rain
9:04 PM 44.6 °F 36.9 °F 41.0 °F 87% 29.43 in 4.0 mi NNW 18.4 mph 25.3 mph 0.02 in Rain Rain
9:13 PM 44.6 °F 37.2 °F 41.0 °F 87% 29.43 in 4.0 mi NNW 17.3 mph - 0.04 in Rain Rain
9:46 PM 44.6 °F 37.2 °F 41.0 °F 87% 29.43 in 5.0 mi NNW 17.3 mph - 0.09 in Rain Rain
9:53 PM 44.1 °F 36.8 °F 41.0 °F 89% 29.45 in 5.0 mi NNW 16.1 mph - 0.10 in Rain Light Rain
10:53 PM 44.1 °F 36.2 °F 41.0 °F 89% 29.47 in 5.0 mi NW 18.4 mph 26.5 mph 0.10 in Rain Rain
11:36 PM 44.6 °F 37.4 °F 39.2 °F 81% 29.48 in 5.0 mi NW 16.1 mph 21.9 mph 0.03 in Rain Light Rain
11:50 PM 42.8 °F 35.4 °F 39.2 °F 87% 29.49 in 5.0 mi NW 15.0 mph 21.9 mph 0.04 in Rain Light Rain
11:53 PM 43.0 °F 35.4 °F 39.9 °F 89% 29.51 in 5.0 mi NW 16.1 mph 21.9 mph 0.04 in Rain Light Rain